Cincinnati, OH

9:18 PM EST on December 15, 2019 (GMT -0500)
Cincinnati Municipal-Lunken

Weather History for KLUK - September, 2019

Change the Weather History Date:

Thursday, September 5, 2019

  Actual Average Record
Temperature  
Mean Temperature 68 °F -  
Max Temperature 79 °F 82 °F 98 °F (2007)
Min Temperature 57 °F 61 °F 46 °F (1974)
Cooling Degree Days 3    
Growing Degree Days 18 (Base 50)    
Moisture  
Dew Point 58 °F    
Average Humidity 76    
Maximum Humidity 100    
Minimum Humidity 45    
Precipitation  
Precipitation 0.00 in - - ()
Sea Level Pressure  
Sea Level Pressure 30.08 in    
Wind  
Wind Speed 4 mph ()    
Max Wind Speed 10 mph    
Max Gust Speed -    
Visibility 9.5 miles    
Events      
Averages and records for this station are not official NWS values.
T = Trace of Precipitation, MM = Missing Value Source: Averaged Metar Reports

Daily Weather History Graph

Daily Weather History Graph

Search for Another Location

Airport or City:

Astronomy

Sep. 05, 2019 Rise Set
Actual Time 7:09 AM EDT 8:02 PM EDT
Civil Twilight 6:42 AM EDT 8:29 PM EDT
Nautical Twilight 6:10 AM EDT 9:01 PM EDT
Astronomical Twilight 5:36 AM EDT 9:34 PM EDT
Moon 2:12 PM EDT (9/5) No Moon Set
Length of Visible Light 13h 46m
Length of Day
12h 52m
Waxing Crescent, 45% of the Moon is Illuminated
Sep 5
Waxing Crescent
Sep 5
First Quarter
Sep 14
Full
Sep 21
Last Quarter
Sep 28
New

Hourly Weather History & Observations

Time (EDT) Temp. Dew Point Humidity Pressure Visibility Wind Dir Wind Speed Gust Speed Precip Events Conditions
12:53 AM 64.9 °F 60.1 °F 84% 30.08 in 10.0 mi NE 4.6 mph - N/A   Clear
1:53 AM 64.0 °F 60.1 °F 87% 30.08 in 10.0 mi NE 3.5 mph - N/A   Clear
2:53 AM 62.1 °F 60.1 °F 93% 30.08 in 10.0 mi NNE 3.5 mph - N/A   Clear
3:53 AM 60.1 °F 59.0 °F 96% 30.09 in 10.0 mi NE 3.5 mph - N/A   Clear
4:53 AM 61.0 °F 59.0 °F 93% 30.09 in 10.0 mi NE 3.5 mph - N/A   Clear
5:53 AM 60.1 °F 59.0 °F 96% 30.10 in 10.0 mi Calm Calm - N/A   Clear
6:28 AM 57.9 °F 57.0 °F 97% 30.11 in 2.0 mi Calm Calm - N/A   Clear
6:36 AM 59.0 °F 59.0 °F 100% 30.11 in 5.0 mi Calm Calm - N/A   Clear
6:53 AM 57.9 °F 57.9 °F 100% 30.11 in 10.0 mi ENE 3.5 mph - N/A   Clear
7:53 AM 57.0 °F 57.0 °F 100% 30.12 in 10.0 mi Calm Calm - N/A   Clear
8:53 AM 64.9 °F 60.1 °F 84% 30.12 in 10.0 mi NE 5.8 mph - N/A   Clear
9:53 AM 68.0 °F 60.1 °F 76% 30.13 in 10.0 mi NE 3.5 mph - N/A   Clear
10:53 AM 71.1 °F 57.0 °F 61% 30.12 in 10.0 mi NE 10.4 mph - N/A   Partly Cloudy
11:53 AM 73.0 °F 55.9 °F 55% 30.11 in 10.0 mi NNE 9.2 mph - N/A   Partly Cloudy
12:53 PM 75.9 °F 55.9 °F 50% 30.10 in 10.0 mi ENE 8.1 mph - N/A   Partly Cloudy
1:13 PM 75.9 °F 54.0 °F 46% 30.10 in - North - - N/A   Partly Cloudy
1:53 PM 75.9 °F 55.9 °F 50% 30.09 in 10.0 mi NE 10.4 mph - N/A   Clear
2:53 PM 78.1 °F 57.0 °F 48% 30.07 in 10.0 mi Variable 6.9 mph - N/A   Partly Cloudy
3:53 PM 79.0 °F 57.0 °F 47% 30.06 in 10.0 mi North 10.4 mph - N/A   Clear
4:53 PM 79.0 °F 55.9 °F 45% 30.04 in 10.0 mi NE 9.2 mph - N/A   Clear
5:53 PM 78.1 °F 57.0 °F 48% 30.03 in 10.0 mi ENE 9.2 mph - N/A   Clear
6:53 PM 75.9 °F 57.0 °F 52% 30.03 in 10.0 mi ENE 6.9 mph - N/A   Clear
7:53 PM 71.1 °F 61.0 °F 70% 30.04 in 10.0 mi Calm Calm - N/A   Clear
8:53 PM 64.9 °F 60.1 °F 84% 30.04 in 10.0 mi Calm Calm - N/A   Clear
9:53 PM 63.0 °F 60.1 °F 90% 30.04 in 10.0 mi Calm Calm - N/A   Clear
10:53 PM 62.1 °F 60.1 °F 93% 30.04 in 10.0 mi NE 3.5 mph - N/A   Clear
11:53 PM 59.0 °F 57.9 °F 96% 30.04 in 10.0 mi Calm Calm - N/A   Clear